Time,TemperatureF,DewpointF,PressureIn,WindDirection,WindDirectionDegrees,WindSpeedMPH,WindSpeedGustMPH,Humidity,HourlyPrecipIn,Conditions,Clouds,dailyrainin,SoftwareType,DateUTC
2013-05-09 00:03:00,60.0,-99.9,29.96,SSE,160,4.0,4.0,-999,-99.99,,,-99.99,,2013-05-09 04:03:00,
2013-05-09 00:13:00,60.0,-99.9,29.95,SSE,160,4.0,4.0,-999,-99.99,,,-99.99,,2013-05-09 04:13:00,
2013-05-09 00:23:00,60.0,-99.9,29.95,SSE,160,4.0,4.0,-999,-99.99,,,-99.99,,2013-05-09 04:23:00,
2013-05-09 00:33:00,60.0,-99.9,29.95,SSE,160,2.0,4.0,-999,-99.99,,,-99.99,,2013-05-09 04:33:00,
2013-05-09 00:43:00,60.0,-99.9,29.95,SSE,150,2.0,2.0,-999,-99.99,,,-99.99,,2013-05-09 04:43:00,
2013-05-09 00:53:00,60.0,-99.9,29.95,SSE,150,2.0,4.0,-999,-99.99,,,-99.99,,2013-05-09 04:53:00,
2013-05-09 01:02:00,60.0,-99.9,29.94,SE,140,2.0,4.0,-999,-99.99,,,-99.99,,2013-05-09 05:02:00,
2013-05-09 01:12:00,60.0,-99.9,29.94,SE,130,2.0,4.0,-999,-99.99,,,-99.99,,2013-05-09 05:12:00,
2013-05-09 01:22:00,60.0,-99.9,29.94,ESE,120,2.0,2.0,-999,-99.99,,,-99.99,,2013-05-09 05:22:00,
2013-05-09 01:32:00,60.0,-99.9,29.93,ESE,120,4.0,4.0,-999,-99.99,,,-99.99,,2013-05-09 05:32:00,
2013-05-09 01:43:00,60.0,-99.9,29.93,ESE,120,4.0,4.0,-999,-99.99,,,-99.99,,2013-05-09 05:43:00,
2013-05-09 01:52:00,60.0,-99.9,29.93,North,0,0.0,2.0,-999,-99.99,,,-99.99,,2013-05-09 05:52:00,
2013-05-09 02:02:00,60.0,-99.9,29.92,North,0,0.0,0.0,-999,-99.99,,,-99.99,,2013-05-09 06:02:00,
2013-05-09 02:12:00,60.0,-99.9,29.92,North,0,0.0,2.0,-999,-99.99,,,-99.99,,2013-05-09 06:12:00,
2013-05-09 02:22:00,60.0,-99.9,29.91,NW,320,2.0,2.0,-999,-99.99,,,-99.99,,2013-05-09 06:22:00,
2013-05-09 02:32:00,60.0,-99.9,29.91,NW,320,2.0,2.0,-999,-99.99,,,-99.99,,2013-05-09 06:32:00,
2013-05-09 02:42:00,60.0,-99.9,29.91,WNW,300,4.0,4.0,-999,-99.99,,,-99.99,,2013-05-09 06:42:00,
2013-05-09 02:52:00,59.0,-99.9,29.91,NW,320,2.0,4.0,-999,-99.99,,,-99.99,,2013-05-09 06:52:00,
2013-05-09 03:02:00,59.0,-99.9,29.91,NNW,340,2.0,2.0,-999,-99.99,,,-99.99,,2013-05-09 07:02:00,
2013-05-09 03:12:00,59.0,-99.9,29.91,North,350,2.0,4.0,-999,-99.99,,,-99.99,,2013-05-09 07:12:00,
2013-05-09 03:22:00,59.0,-99.9,29.92,NNW,340,4.0,7.0,-999,-99.99,,,-99.99,,2013-05-09 07:22:00,
2013-05-09 03:32:00,59.0,-99.9,29.92,NNW,330,4.0,7.0,-999,-99.99,,,-99.99,,2013-05-09 07:32:00,
2013-05-09 03:43:00,58.0,-99.9,29.91,NNW,330,4.0,4.0,-999,-99.99,,,-99.99,,2013-05-09 07:43:00,
2013-05-09 03:52:00,58.0,-99.9,29.91,NNW,340,4.0,4.0,-999,-99.99,,,-99.99,,2013-05-09 07:52:00,
2013-05-09 04:02:00,58.0,-99.9,29.91,NNW,340,2.0,4.0,-999,-99.99,,,-99.99,,2013-05-09 08:02:00,
2013-05-09 04:11:00,58.0,-99.9,29.90,North,0,0.0,2.0,-999,-99.99,,,-99.99,,2013-05-09 08:11:00,
2013-05-09 04:22:00,58.0,-99.9,29.90,North,0,0.0,2.0,-999,-99.99,,,-99.99,,2013-05-09 08:22:00,
2013-05-09 04:32:00,58.0,-99.9,29.91,North,0,0.0,2.0,-999,-99.99,,,-99.99,,2013-05-09 08:32:00,
2013-05-09 04:42:00,58.0,-99.9,29.91,NW,320,2.0,2.0,-999,-99.99,,,-99.99,,2013-05-09 08:42:00,
2013-05-09 04:52:00,58.0,-99.9,29.91,WNW,290,2.0,2.0,-999,-99.99,,,-99.99,,2013-05-09 08:52:00,
2013-05-09 05:02:00,58.0,-99.9,29.91,WNW,290,2.0,4.0,-999,-99.99,,,-99.99,,2013-05-09 09:02:00,
2013-05-09 05:12:00,58.0,-99.9,29.91,West,280,2.0,4.0,-999,-99.99,,,-99.99,,2013-05-09 09:12:00,
2013-05-09 05:22:00,58.0,-99.9,29.90,WNW,290,4.0,4.0,-999,-99.99,,,-99.99,,2013-05-09 09:22:00,
2013-05-09 05:32:00,58.0,-99.9,29.90,WNW,290,4.0,4.0,-999,-99.99,,,-99.99,,2013-05-09 09:32:00,
2013-05-09 05:43:00,57.0,-99.9,29.90,West,280,4.0,4.0,-999,-99.99,,,-99.99,,2013-05-09 09:43:00,
2013-05-09 05:53:00,57.0,-99.9,29.90,West,260,2.0,4.0,-999,-99.99,,,-99.99,,2013-05-09 09:53:00,
2013-05-09 06:02:00,57.0,-99.9,29.90,West,270,2.0,4.0,-999,-99.99,,,-99.99,,2013-05-09 10:02:00,
2013-05-09 06:12:00,57.0,-99.9,29.90,WNW,300,2.0,4.0,-999,-99.99,,,-99.99,,2013-05-09 10:12:00,
2013-05-09 06:23:00,57.0,-99.9,29.91,WNW,290,4.0,7.0,-999,-99.99,,,-99.99,,2013-05-09 10:23:00,
2013-05-09 06:33:00,57.0,-99.9,29.91,West,280,7.0,7.0,-999,-99.99,,,-99.99,,2013-05-09 10:33:00,
2013-05-09 06:42:00,56.0,-99.9,29.91,West,280,4.0,7.0,-999,-99.99,,,-99.99,,2013-05-09 10:42:00,
2013-05-09 06:53:00,55.0,-99.9,29.92,West,280,7.0,9.0,-999,-99.99,,,-99.99,,2013-05-09 10:53:00,
2013-05-09 07:03:00,55.0,-99.9,29.93,West,280,11.0,13.0,-999,-99.99,,,-99.99,,2013-05-09 11:03:00,
2013-05-09 07:12:00,54.0,-99.9,29.93,WNW,290,9.0,11.0,-999,-99.99,,,-99.99,,2013-05-09 11:12:00,
2013-05-09 07:22:00,54.0,-99.9,29.93,WNW,290,7.0,9.0,-999,-99.99,,,-99.99,,2013-05-09 11:22:00,
2013-05-09 07:32:00,55.0,-99.9,29.93,WNW,300,7.0,9.0,-999,-99.99,,,-99.99,,2013-05-09 11:32:00,
2013-05-09 07:42:00,55.0,-99.9,29.94,WNW,290,9.0,9.0,-999,-99.99,,,-99.99,,2013-05-09 11:42:00,
2013-05-09 07:52:00,55.0,-99.9,29.94,WNW,290,7.0,11.0,-999,-99.99,,,-99.99,,2013-05-09 11:52:00,
2013-05-09 08:02:00,55.0,-99.9,29.94,WNW,290,4.0,9.0,-999,-99.99,,,-99.99,,2013-05-09 12:02:00,
2013-05-09 08:12:00,55.0,-99.9,29.94,NW,310,7.0,9.0,-999,-99.99,,,-99.99,,2013-05-09 12:12:00,
2013-05-09 08:22:00,55.0,-99.9,29.95,NW,320,4.0,7.0,-999,-99.99,,,-99.99,,2013-05-09 12:22:00,
2013-05-09 08:32:00,55.0,-99.9,29.95,NW,320,4.0,7.0,-999,-99.99,,,-99.99,,2013-05-09 12:32:00,
2013-05-09 08:43:00,56.0,-99.9,29.95,West,280,4.0,9.0,-999,-99.99,,,-99.99,,2013-05-09 12:43:00,
2013-05-09 08:52:00,56.0,-99.9,29.95,West,280,4.0,7.0,-999,-99.99,,,-99.99,,2013-05-09 12:52:00,
2013-05-09 09:02:00,56.0,-99.9,29.95,West,270,4.0,9.0,-999,-99.99,,,-99.99,,2013-05-09 13:02:00,
2013-05-09 09:12:00,56.0,-99.9,29.95,West,270,9.0,11.0,-999,-99.99,,,-99.99,,2013-05-09 13:12:00,
2013-05-09 09:22:00,56.0,-99.9,29.96,West,270,9.0,13.0,-999,-99.99,,,-99.99,,2013-05-09 13:22:00,
2013-05-09 09:32:00,57.0,-99.9,29.96,WNW,290,7.0,9.0,-999,-99.99,,,-99.99,,2013-05-09 13:32:00,
2013-05-09 09:42:00,57.0,-99.9,29.96,West,280,9.0,11.0,-999,-99.99,,,-99.99,,2013-05-09 13:42:00,
2013-05-09 09:52:00,58.0,-99.9,29.96,West,260,9.0,11.0,-999,-99.99,,,-99.99,,2013-05-09 13:52:00,
2013-05-09 10:02:00,58.0,-99.9,29.97,WNW,290,7.0,9.0,-999,-99.99,,,-99.99,,2013-05-09 14:02:00,
2013-05-09 10:11:00,58.0,-99.9,29.97,WNW,290,7.0,9.0,-999,-99.99,,,-99.99,,2013-05-09 14:11:00,
2013-05-09 10:22:00,59.0,-99.9,29.97,West,280,7.0,9.0,-999,-99.99,,,-99.99,,2013-05-09 14:22:00,
2013-05-09 10:32:00,59.0,-99.9,29.97,West,280,7.0,9.0,-999,-99.99,,,-99.99,,2013-05-09 14:32:00,
2013-05-09 10:42:00,60.0,-99.9,29.97,West,260,4.0,9.0,-999,-99.99,,,-99.99,,2013-05-09 14:42:00,
2013-05-09 10:52:00,60.0,-99.9,29.97,West,260,4.0,9.0,-999,-99.99,,,-99.99,,2013-05-09 14:52:00,
2013-05-09 11:02:00,60.0,-99.9,29.97,West,260,4.0,9.0,-999,-99.99,,,-99.99,,2013-05-09 15:02:00,
2013-05-09 11:12:00,61.0,-99.9,29.97,West,260,4.0,7.0,-999,-99.99,,,-99.99,,2013-05-09 15:12:00,
2013-05-09 11:22:00,61.0,-99.9,29.97,WSW,250,4.0,4.0,-999,-99.99,,,-99.99,,2013-05-09 15:22:00,
2013-05-09 11:33:00,61.0,-99.9,29.97,WSW,250,4.0,4.0,-999,-99.99,,,-99.99,,2013-05-09 15:33:00,
2013-05-09 11:43:00,62.0,-99.9,29.97,SSW,200,2.0,4.0,-999,-99.99,,,-99.99,,2013-05-09 15:43:00,
2013-05-09 11:53:00,62.0,-99.9,29.97,West,270,4.0,7.0,-999,-99.99,,,-99.99,,2013-05-09 15:53:00,
2013-05-09 12:03:00,62.0,-99.9,29.97,West,270,2.0,4.0,-999,-99.99,,,-99.99,,2013-05-09 16:03:00,
2013-05-09 12:12:00,63.0,-99.9,29.96,South,190,2.0,2.0,-999,-99.99,,,-99.99,,2013-05-09 16:12:00,
2013-05-09 12:23:00,63.0,-99.9,29.96,South,190,2.0,2.0,-999,-99.99,,,-99.99,,2013-05-09 16:23:00,
2013-05-09 12:33:00,62.0,-99.9,29.96,SSE,160,4.0,9.0,-999,-99.99,,,-99.99,,2013-05-09 16:33:00,
2013-05-09 12:42:00,62.0,-99.9,29.96,South,190,9.0,11.0,-999,-99.99,,,-99.99,,2013-05-09 16:42:00,
2013-05-09 12:53:00,62.0,-99.9,29.96,South,190,11.0,13.0,-999,-99.99,,,-99.99,,2013-05-09 16:53:00,
2013-05-09 13:02:00,61.0,-99.9,29.95,South,190,13.0,13.0,-999,-99.99,,,-99.99,,2013-05-09 17:02:00,
2013-05-09 13:12:00,61.0,-99.9,29.95,South,190,11.0,13.0,-999,-99.99,,,-99.99,,2013-05-09 17:12:00,
2013-05-09 13:22:00,61.0,-99.9,29.94,South,190,9.0,11.0,-999,-99.99,,,-99.99,,2013-05-09 17:22:00,
2013-05-09 13:32:00,61.0,-99.9,29.94,South,180,11.0,13.0,-999,-99.99,,,-99.99,,2013-05-09 17:32:00,
2013-05-09 13:42:00,62.0,-99.9,29.94,South,180,11.0,16.0,-999,-99.99,,,-99.99,,2013-05-09 17:42:00,
2013-05-09 13:55:00,62.0,-99.9,29.93,South,170,11.0,16.0,-999,-99.99,,,-99.99,,2013-05-09 17:55:00,
2013-05-09 14:02:00,62.0,-99.9,29.93,South,180,11.0,18.0,-999,-99.99,,,-99.99,,2013-05-09 18:02:00,
2013-05-09 14:12:00,62.0,-99.9,29.93,South,180,11.0,13.0,-999,-99.99,,,-99.99,,2013-05-09 18:12:00,
2013-05-09 14:22:00,62.0,-99.9,29.93,South,180,11.0,13.0,-999,-99.99,,,-99.99,,2013-05-09 18:22:00,
2013-05-09 14:32:00,62.0,-99.9,29.93,South,180,11.0,13.0,-999,-99.99,,,-99.99,,2013-05-09 18:32:00,
2013-05-09 14:42:00,62.0,-99.9,29.93,South,180,13.0,16.0,-999,-99.99,,,-99.99,,2013-05-09 18:42:00,
2013-05-09 14:53:00,63.0,-99.9,29.93,South,190,13.0,16.0,-999,-99.99,,,-99.99,,2013-05-09 18:53:00,
2013-05-09 15:01:00,63.0,-99.9,29.93,South,180,13.0,16.0,-999,-99.99,,,-99.99,,2013-05-09 19:01:00,
2013-05-09 15:12:00,63.0,-99.9,29.93,South,180,13.0,16.0,-999,-99.99,,,-99.99,,2013-05-09 19:12:00,
2013-05-09 15:22:00,63.0,-99.9,29.92,South,190,13.0,16.0,-999,-99.99,,,-99.99,,2013-05-09 19:22:00,
2013-05-09 15:32:00,63.0,-99.9,29.92,SSW,200,11.0,13.0,-999,-99.99,,,-99.99,,2013-05-09 19:32:00,
2013-05-09 15:42:00,63.0,-99.9,29.92,South,190,11.0,13.0,-999,-99.99,,,-99.99,,2013-05-09 19:42:00,
2013-05-09 15:52:00,64.0,-99.9,29.92,South,190,9.0,13.0,-999,-99.99,,,-99.99,,2013-05-09 19:52:00,
2013-05-09 16:02:00,64.0,-99.9,29.92,SSW,200,11.0,13.0,-999,-99.99,,,-99.99,,2013-05-09 20:02:00,
2013-05-09 16:11:00,64.0,-99.9,29.92,SSW,200,11.0,13.0,-999,-99.99,,,-99.99,,2013-05-09 20:11:00,
2013-05-09 16:22:00,64.0,-99.9,29.92,SSW,200,9.0,11.0,-999,-99.99,,,-99.99,,2013-05-09 20:22:00,
2013-05-09 16:32:00,64.0,-99.9,29.91,SSW,200,11.0,13.0,-999,-99.99,,,-99.99,,2013-05-09 20:32:00,
2013-05-09 16:42:00,64.0,-99.9,29.91,SSW,200,11.0,13.0,-999,-99.99,,,-99.99,,2013-05-09 20:42:00,
2013-05-09 16:52:00,65.0,-99.9,29.91,SSW,200,11.0,13.0,-999,-99.99,,,-99.99,,2013-05-09 20:52:00,
2013-05-09 17:02:00,65.0,-99.9,29.91,SSW,200,11.0,11.0,-999,-99.99,,,-99.99,,2013-05-09 21:02:00,
2013-05-09 17:12:00,64.0,-99.9,29.91,SSW,200,9.0,11.0,-999,-99.99,,,-99.99,,2013-05-09 21:12:00,
2013-05-09 17:23:00,64.0,-99.9,29.91,SSW,200,9.0,11.0,-999,-99.99,,,-99.99,,2013-05-09 21:23:00,
2013-05-09 17:33:00,64.0,-99.9,29.91,SSW,200,9.0,11.0,-999,-99.99,,,-99.99,,2013-05-09 21:33:00,
2013-05-09 17:43:00,65.0,-99.9,29.91,SSW,200,11.0,13.0,-999,-99.99,,,-99.99,,2013-05-09 21:43:00,
2013-05-09 17:53:00,65.0,-99.9,29.91,South,190,11.0,13.0,-999,-99.99,,,-99.99,,2013-05-09 21:53:00,
2013-05-09 18:03:00,65.0,-99.9,29.91,South,190,9.0,11.0,-999,-99.99,,,-99.99,,2013-05-09 22:03:00,
2013-05-09 18:13:00,65.0,-99.9,29.92,South,190,11.0,13.0,-999,-99.99,,,-99.99,,2013-05-09 22:13:00,
2013-05-09 18:23:00,65.0,-99.9,29.92,SSW,200,11.0,13.0,-999,-99.99,,,-99.99,,2013-05-09 22:23:00,
2013-05-09 18:33:00,67.0,-99.9,29.92,SSW,200,9.0,13.0,-999,-99.99,,,-99.99,,2013-05-09 22:33:00,
2013-05-09 18:42:00,70.0,-99.9,29.92,WSW,250,9.0,11.0,-999,-99.99,,,-99.99,,2013-05-09 22:42:00,
2013-05-09 18:53:00,71.0,-99.9,29.92,WSW,250,9.0,11.0,-999,-99.99,,,-99.99,,2013-05-09 22:53:00,
2013-05-09 19:03:00,70.0,-99.9,29.92,WSW,250,9.0,13.0,-999,-99.99,,,-99.99,,2013-05-09 23:03:00,
2013-05-09 19:12:00,71.0,-99.9,29.92,WSW,250,9.0,13.0,-999,-99.99,,,-99.99,,2013-05-09 23:12:00,
2013-05-09 19:22:00,71.0,-99.9,29.92,WSW,250,9.0,11.0,-999,-99.99,,,-99.99,,2013-05-09 23:22:00,
2013-05-09 19:32:00,71.0,-99.9,29.92,WSW,240,7.0,11.0,-999,-99.99,,,-99.99,,2013-05-09 23:32:00,
2013-05-09 19:43:00,70.0,-99.9,29.93,WSW,240,9.0,11.0,-999,-99.99,,,-99.99,,2013-05-09 23:43:00,
2013-05-09 19:52:00,70.0,-99.9,29.93,WSW,250,9.0,11.0,-999,-99.99,,,-99.99,,2013-05-09 23:52:00,
2013-05-09 20:02:00,70.0,-99.9,29.93,WSW,250,7.0,9.0,-999,-99.99,,,-99.99,,2013-05-10 00:02:00,
2013-05-09 20:11:00,69.0,-99.9,29.94,WSW,250,7.0,7.0,-999,-99.99,,,-99.99,,2013-05-10 00:11:00,
2013-05-09 20:22:00,69.0,-99.9,29.94,WSW,250,7.0,7.0,-999,-99.99,,,-99.99,,2013-05-10 00:22:00,
2013-05-09 20:32:00,69.0,-99.9,29.94,WSW,250,7.0,7.0,-999,-99.99,,,-99.99,,2013-05-10 00:32:00,
2013-05-09 20:42:00,68.0,-99.9,29.95,WSW,250,4.0,7.0,-999,-99.99,,,-99.99,,2013-05-10 00:42:00,
2013-05-09 20:52:00,68.0,-99.9,29.94,West,260,4.0,7.0,-999,-99.99,,,-99.99,,2013-05-10 00:52:00,
2013-05-09 21:01:00,68.0,-99.9,29.94,WSW,250,7.0,7.0,-999,-99.99,,,-99.99,,2013-05-10 01:01:00,
2013-05-09 21:11:00,68.0,-99.9,29.94,SW,230,4.0,7.0,-999,-99.99,,,-99.99,,2013-05-10 01:11:00,
2013-05-09 21:22:00,67.0,-99.9,29.95,WSW,240,7.0,9.0,-999,-99.99,,,-99.99,,2013-05-10 01:22:00,
2013-05-09 21:32:00,67.0,-99.9,29.95,WSW,240,7.0,9.0,-999,-99.99,,,-99.99,,2013-05-10 01:32:00,
2013-05-09 21:42:00,67.0,-99.9,29.95,WSW,240,7.0,7.0,-999,-99.99,,,-99.99,,2013-05-10 01:42:00,
2013-05-09 21:52:00,67.0,-99.9,29.96,WSW,240,7.0,7.0,-999,-99.99,,,-99.99,,2013-05-10 01:52:00,
2013-05-09 22:02:00,67.0,-99.9,29.96,WSW,250,7.0,9.0,-999,-99.99,,,-99.99,,2013-05-10 02:02:00,
2013-05-09 22:11:00,68.0,-99.9,29.96,West,260,7.0,9.0,-999,-99.99,,,-99.99,,2013-05-10 02:11:00,
2013-05-09 22:21:00,68.0,-99.9,29.97,WSW,250,4.0,7.0,-999,-99.99,,,-99.99,,2013-05-10 02:21:00,
2013-05-09 22:32:00,67.0,-99.9,29.97,WSW,250,2.0,4.0,-999,-99.99,,,-99.99,,2013-05-10 02:32:00,
2013-05-09 22:42:00,66.0,-99.9,29.97,North,0,0.0,2.0,-999,-99.99,,,-99.99,,2013-05-10 02:42:00,
2013-05-09 22:53:00,66.0,-99.9,29.97,North,0,0.0,2.0,-999,-99.99,,,-99.99,,2013-05-10 02:53:00,
2013-05-09 23:01:00,65.0,-99.9,29.97,South,190,2.0,4.0,-999,-99.99,,,-99.99,,2013-05-10 03:01:00,
2013-05-09 23:11:00,64.0,-99.9,29.97,South,190,7.0,9.0,-999,-99.99,,,-99.99,,2013-05-10 03:11:00,
2013-05-09 23:22:00,63.0,-99.9,29.97,SSW,200,7.0,9.0,-999,-99.99,,,-99.99,,2013-05-10 03:22:00,
2013-05-09 23:33:00,63.0,-99.9,29.97,SSW,200,7.0,9.0,-999,-99.99,,,-99.99,,2013-05-10 03:33:00,
2013-05-09 23:43:00,64.0,-99.9,29.96,WSW,240,4.0,4.0,-999,-99.99,,,-99.99,,2013-05-10 03:43:00,
2013-05-09 23:53:00,64.0,-99.9,29.97,WSW,250,2.0,4.0,-999,-99.99,,,-99.99,,2013-05-10 03:53:00,